Retour au catalogue

GITAI-SC1

ActifScienceVLEO
NORAD 62388·PAYLOAD·🇺🇸 United States

Lancé Dec 21, 2024 depuis Vandenberg Space Force Base

Loading…

Prochains Passages (prochaines 24 heures)

TLE

FraisSource: Space-Track

Époque: Sep 14, 2026, 04:41 UTC

1 62388U 24247M   26257.19516555  .00003620  00000-0  16711-3 0  9995
2 62388  45.0002 190.0629 0000497 259.5607 100.5218 15.22121661 96291

Suivez GITAI-SC1 en temps réel avec AllMySat

Download on the App Store